EW9119 Weather Reports


time (UTC)temp
F
wind
direction
speed
knots
gust
knots
rain 1hr
in
rain 24hr
in
rain mn
in
humidity
%
barometer
mb
20260901224543 91 304 0.0 0.0 0.00 0.00 0.00 53 1014.1
20260901223038 92 304 0.0 0.0 0.00 0.00 0.00 50 1014.1
20260901221535 92 304 0.0 0.0 0.00 0.00 0.00 47 1014.1
20260901220029 92 292 0.0 0.0 0.00 0.00 0.00 47 1014.1
20260901214525 93 308 0.0 0.0 0.00 0.00 0.00 47 1014.1
20260901213026 92 275 0.0 0.0 0.00 0.00 0.00 46 1014.1
20260901211516 93 323 0.0 0.0 0.00 0.00 0.00 48 1014.0
20260901210014 93 341 0.0 0.0 0.00 0.00 0.00 45 1014.2
20260901204512 93 288 0.0 0.0 0.00 0.00 0.00 45 1014.4
20260901203005 93 167 0.0 0.0 0.00 0.00 0.00 45 1014.4
20260901201558 93 286 0.0 0.0 0.00 0.00 0.00 45 1014.4
20260901200054 94 270 0.0 0.0 0.00 0.00 0.00 44 1014.5
20260901194554 94 286 0.0 0.0 0.00 0.00 0.00 44 1014.5
20260901193045 94 333 0.0 0.0 0.00 0.00 0.00 44 1014.6
20260901191543 93 331 0.0 0.0 0.00 0.00 0.00 44 1014.9
20260901190039 94 299 0.0 0.0 0.00 0.00 0.00 43 1015.0
20260901184532 93 257 0.0 0.0 0.00 0.00 0.00 44 1015.0
20260901183047 93 323 0.0 0.0 0.00 0.00 0.00 44 1015.1
20260901181523 93 20 0.0 0.0 0.00 0.00 0.00 45 1015.2
20260901180021 93 300 0.0 0.0 0.00 0.00 0.00 46 1015.3
20260901174514 94 317 0.0 0.0 0.00 0.00 0.00 45 1015.5
20260901173010 93 271 0.0 0.0 0.00 0.00 0.00 46 1015.5
20260901171506 94 355 0.0 0.0 0.00 0.00 0.00 46 1015.6
20260901170001 93 316 0.0 0.0 0.00 0.00 0.00 47 1015.7
20260901164557 92 282 0.0 0.0 0.00 0.00 0.00 47 1016.0
20260901163110 92 302 0.0 0.0 0.00 0.00 0.00 48 1016.2
20260901161604 92 316 0.0 0.0 0.00 0.00 0.00 48 1016.3
20260901160054 91 313 0.0 0.0 0.00 0.00 0.00 52 1016.4
20260901154547 91 301 0.0 0.0 0.00 0.00 0.00 54 1016.6
20260901153040 90 323 0.0 0.0 0.00 0.00 0.00 55 1016.8
20260901151549 91 300 0.0 0.0 0.00 0.00 0.00 56 1017.0
20260901150032 89 346 0.0 0.0 0.00 0.00 0.00 58 1017.0
20260901144527 88 318 0.0 0.0 0.00 0.00 0.00 63 1017.2
20260901143022 86 317 0.0 0.0 0.00 0.00 0.00 62 1017.3
20260901141528 85 360 0.0 0.0 0.00 0.00 0.00 63 1017.3
20260901140013 84 323 0.0 0.0 0.00 0.00 0.00 68 1017.2
20260901134511 83 322 0.0 0.0 0.00 0.00 0.00 68 1017.3
20260901133004 81 311 0.0 0.0 0.00 0.00 0.00 68 1017.3
20260901131600 80 120 0.0 0.0 0.00 0.00 0.00 65 1017.3
20260901130059 79 142 0.0 0.0 0.00 0.00 0.00 60 1017.4
20260901124551 77 142 0.0 0.0 0.00 0.00 0.00 36 1017.5
20260901123047 75 142 0.0 0.0 0.00 0.00 0.00 1 1017.4
20260901121543 72 142 0.0 0.0 0.00 0.00 0.00 1 1017.2
20260901120041 70 142 0.0 0.0 0.00 0.00 0.00 1 1017.1
20260901114535 70 142 0.0 0.0 0.00 0.00 0.00 1 1017.0
20260901113033 70 142 0.0 0.0 0.00 0.00 0.00 1 1016.8
20260901111526 70 142 0.0 0.0 0.00 0.00 0.00 1 1016.6
20260901110023 70 142 0.0 0.0 0.00 0.00 0.00 1 1016.6
20260901104525 70 142 0.0 0.0 0.00 0.00 0.00 1 1016.4
20260901103021 70 142 0.0 0.0 0.00 0.00 0.00 1 1016.4
20260901101519 70 142 0.0 0.0 0.00 0.00 0.00 1 1016.2
20260901100015 70 142 0.0 0.0 0.00 0.00 0.00 1 1016.3
20260901094511 70 142 0.0 0.0 0.00 0.00 0.00 1 1016.2
20260901093006 70 142 0.0 0.0 0.00 0.00 0.00 1 1016.2
20260901091501 70 142 0.0 0.0 0.00 0.00 0.00 1 1016.2
20260901084621 71 142 0.0 0.0 0.00 0.00 0.00 1 1016.0
20260901083049 71 142 0.0 0.0 0.00 0.00 0.00 1 1016.0
20260901081545 71 142 0.0 0.0 0.00 0.00 0.00 1 1016.1
20260901080055 71 142 0.0 0.0 0.00 0.00 0.00 1 1016.2
20260901074536 71 142 0.0 0.0 0.00 0.00 0.00 1 1016.2
20260901073043 72 142 0.0 0.0 0.00 0.00 0.00 1 1016.5
20260901071528 72 142 0.0 0.0 0.00 0.00 0.00 1 1016.5
20260901070023 72 142 0.0 0.0 0.00 0.00 0.00 1 1016.6
20260901064519 72 142 0.0 0.0 0.00 0.00 0.00 1 1016.6
20260901063020 72 142 0.0 0.0 0.00 0.00 0.00 1 1016.7
20260901061510 72 142 0.0 0.0 0.00 0.00 0.00 1 1016.6
20260901060017 73 142 0.0 0.0 0.00 0.00 0.00 1 1016.6
20260901054502 73 142 0.0 0.0 0.00 0.00 0.00 1 1016.8
20260901053105 73 142 0.0 0.0 0.00 0.00 0.00 1 1016.7
20260901051557 73 142 0.0 0.0 0.00 0.00 0.00 2 1016.9
20260901050049 74 142 0.0 0.0 0.00 0.00 0.00 8 1016.7
20260901044552 74 142 0.0 0.0 0.00 0.00 0.00 18 1016.6
20260901043042 74 142 0.0 0.0 0.00 0.00 0.00 27 1016.5
20260901041553 74 142 0.0 0.0 0.00 0.00 0.00 33 1016.5
20260901040049 74 142 0.0 0.0 0.00 0.00 0.00 38 1016.5
20260901034533 75 142 0.0 0.0 0.00 0.00 0.00 41 1016.5
20260901033028 75 142 0.0 0.0 0.00 0.00 0.00 50 1016.4
20260901031526 75 142 0.0 0.0 0.00 0.00 0.00 52 1016.5
20260901030019 75 142 0.0 0.0 0.00 0.00 0.00 53 1016.6
20260901024515 76 142 0.0 0.0 0.00 0.00 0.00 54 1016.5
20260901023010 76 142 0.0 0.0 0.00 0.00 0.00 56 1016.5
20260901021510 77 142 0.0 0.0 0.00 0.00 0.00 60 1016.4
20260901020002 77 142 0.0 0.0 0.00 0.00 0.00 64 1016.4
20260901014558 78 142 0.0 0.0 0.00 0.00 0.00 67 1016.2
20260901013058 78 142 0.0 0.0 0.00 0.00 0.00 68 1016.1
20260901011549 79 142 0.0 0.0 0.00 0.00 0.00 69 1015.8
20260901010054 80 142 0.0 0.0 0.00 0.00 0.00 70 1015.6
20260901004544 80 142 0.0 0.0 0.00 0.00 0.00 70 1015.5
20260901003041 81 142 0.0 0.0 0.00 0.00 0.00 70 1015.4
20260901001538 82 142 0.0 0.0 0.00 0.00 0.00 69 1015.3
20260901000032 83 142 0.0 0.0 0.00 0.00 0.00 68 1015.2
20260831234528 84 142 0.0 0.0 0.00 0.00 0.00 67 1015.0
20260831233036 85 142 0.0 0.0 0.00 0.00 0.00 65 1015.0
20260831231525 86 140 0.0 0.0 0.00 0.00 0.00 63 1015.1
20260831230014 86 140 0.0 0.0 0.00 0.00 0.00 61 1015.3